{"data":{"norad_id":61559,"intl_designator":"2024-185H","name":"QIANFAN-26","alt_names":[],"object_type":"PAYLOAD","status":"ACTIVE","operator":null,"country":"PRC","launch_date":"2024-10-15","launch_site_code":"TAISC","launch_vehicle":null,"mission":null,"orbit_class":"UNKNOWN","rcs_meters":null,"size_class":null,"mass_kg":null,"dimensions":null,"purposes":[],"wikipedia_slug":null,"has_3d_model":false,"image_url":null,"decayed_at":null,"tle_current":{"epoch":"2026-09-22T20:01:53.501664Z","epoch_age_seconds":95735,"freshness":"FRESH","line1":"1 61559U 24185H   26265.83464701  .00000205  00000+0  19152-3 0  9997","line2":"2 61559  88.9839  49.0902 0004534 215.4402 144.6463 13.77946273107792","mean_motion":13.77946273,"eccentricity":0.0004534,"inclination_deg":88.9839,"raan_deg":49.0902,"arg_perigee_deg":215.4402,"mean_anomaly_deg":144.6463,"bstar":0.00019152,"rev_number":10779,"period_min":104.50334880364,"perigee_km":967.84789882915,"apogee_km":974.51225955657,"semimajor_km":7349.3170791929,"source":"CELESTRAK","updated_at":"2026-09-23T09:00:20.904528Z"}}}